Lapse_Rate
5.2 6.5 6.5 6.5 6.5 6.5 6.5 6.5 6.5 6.5 6.5 6.5 6.5 6.5 6.5 6.4 6.5 6.5 6.5 6.6 6.7 6.4 6.5 5.3 5.1 5.1 5.6 4.2 4.1 4.4 4.9 4.8 4.7 3.0 3.1 2.8 3.1 3.3 3.4 3.3 5.1 4.2 4.1 4.8
6.5 6.5 6.5 6.5 6.5 6.5 6.5 6.5 6.5 6.5 6.5 6.5 6.5 6.5 6.5 6.5 6.4 6.5 6.5 6.5 6.7 6.6 6.2 5.5 4.7 4.7 5.5 4.1 4.3 4.3 3.9 4.5 4.5 4.4 4.6 3.6 2.7 3.0 3.2 3.4 4.2 4.3 4.4 4.4
6.5 6.5 6.5 6.5 6.5 6.5 6.5 6.5 6.5 6.5 6.5 6.5 6.5 6.5 6.5 6.5 6.2 6.4 6.7 6.8 6.8 6.5 6.1 5.4 5.3 4.9 4.8 4.9 3.9 4.2 3.3 3.7 4.3 4.0 3.6 3.0 3.0 3.0 3.4 3.7 3.9 3.2 5.0 4.2
6.5 6.5 6.5 6.5 6.5 6.5 6.5 6.5 6.5 6.5 6.5 6.5 6.5 6.5 6.5 6.5 6.5 6.5 6.3 6.4 6.6 6.6 6.6 5.4 5.6 4.7 5.0 4.5 4.3 4.2 3.3 3.1 3.7 3.7 4.6 5.2 4.2 3.8 3.0 3.5 4.4 2.8 3.9 4.5
6.5 6.5 6.5 6.5 6.5 6.5 6.5 6.5 6.5 6.5 6.5 6.5 6.5 6.5 6.5 6.5 6.5 6.5 6.3 6.4 6.6 6.7 6.7 5.9 5.5 5.4 4.9 4.9 4.2 3.9 3.4 3.0 3.5 3.9 4.7 4.9 4.6 4.1 3.0 3.0 3.4 2.3 2.7 4.1
6.5 5.7 6.5 6.5 6.5 6.5 6.5 6.5 6.5 6.5 6.5 6.5 6.5 6.5 6.5 6.5 6.5 6.5 6.3 6.3 6.6 6.8 6.7 6.3 5.5 5.7 5.1 5.0 4.4 3.7 3.3 3.3 3.2 3.8 4.1 4.5 4.4 3.4 3.1 2.9 2.2 2.3 3.3 3.5
6.5 6.5 6.5 6.4 6.5 6.5 6.5 6.5 6.5 6.5 6.5 6.5 6.5 6.5 6.5 6.5 6.5 6.5 6.5 6.1 6.5 6.7 6.7 6.5 6.3 6.4 5.6 4.7 4.1 3.7 3.1 3.5 3.4 3.4 3.7 4.0 3.9 3.7 3.1 2.7 3.2 2.3 2.4 2.2
6.5 6.5 6.5 6.5 6.5 6.5 6.5 6.5 6.5 6.5 6.5 6.5 6.5 6.5 6.5 6.5 6.2 6.2 6.2 6.2 6.3 6.5 6.7 6.4 5.7 5.3 5.3 4.6 3.6 3.4 2.9 3.5 3.6 3.5 3.4 3.6 3.9 4.4 3.9 3.1 3.2 3.6 4.2 3.3
6.5 6.5 6.5 6.5 6.5 6.5 6.5 6.5 6.5 6.5 6.5 6.5 6.5 6.5 6.5 6.5 6.5 6.5 6.2 6.2 6.2 6.7 6.8 6.5 5.3 5.0 4.9 4.5 3.6 2.8 2.7 3.2 3.1 3.4 3.4 3.7 3.8 4.3 3.9 3.0 3.1 3.0 3.7 3.3
6.5 6.5 6.5 6.5 6.4 6.5 6.5 6.5 6.5 6.5 6.5 6.5 6.5 6.5 6.5 6.5 6.5 6.5 6.5 6.2 6.1 6.2 6.6 6.7 6.4 5.3 4.5 4.5 3.4 2.9 2.5 2.9 2.5 3.0 3.3 3.4 3.7 4.1 3.8 2.7 3.5 3.8 3.5 3.6
6.5 6.5 6.5 6.5 6.5 6.5 6.5 6.5 6.5 6.5 6.5 6.5 6.5 6.5 6.5 6.5 6.5 6.5 6.5 6.1 6.0 6.2 5.6 6.6 6.2 5.5 4.2 4.4 4.1 2.8 2.4 3.1 2.9 2.9 3.1 3.3 3.3 3.7 4.2 3.2 3.4 3.7 3.8 3.4
6.5 6.5 6.5 6.5 6.5 6.5 6.5 6.5 6.5 6.5 6.5 6.5 6.5 6.5 6.5 6.5 6.5 6.6 6.2 6.2 6.1 5.9 3.4 4.5 5.6 6.6 5.8 5.4 5.4 3.4 2.1 2.6 3.1 2.8 2.9 2.9 3.0 3.3 3.6 3.9 3.5 3.4 3.9 3.6
6.5 6.5 6.5 6.5 6.5 6.5 6.5 6.5 6.5 6.5 6.5 6.5 6.5 6.5 6.5 6.5 6.5 5.0 5.4 4.3 4.0 3.3 2.4 4.2 4.8 6.3 5.4 4.9 4.8 4.5 2.4 2.0 2.3 3.1 2.8 2.7 3.0 2.9 2.8 3.2 3.5 2.6 3.5 2.8
6.4 6.5 6.5 6.5 6.5 6.5 6.5 6.5 6.5 6.5 6.5 6.5 6.5 6.5 6.5 6.5 6.5 6.5 4.7 3.9 2.8 2.4 2.8 2.3 3.1 5.1 5.1 4.0 4.1 4.2 2.6 2.0 1.7 2.6 3.0 2.5 2.6 2.6 2.4 2.5 2.8 2.5 2.8 2.4
6.5 6.5 6.5 6.5 6.5 6.5 6.5 6.5 6.5 6.5 6.5 6.5 6.5 6.5 6.5 6.5 6.5 6.2 4.2 4.1 5.2 4.3 3.6 3.2 3.9 4.7 4.7 4.0 4.2 4.0 3.5 2.5 2.0 2.0 2.5 2.5 2.2 2.1 2.2 2.2 2.1 2.3 2.6 2.9
6.5 6.5 6.5 6.5 6.5 6.5 6.5 6.5 6.5 6.5 6.5 6.5 6.5 6.5 6.5 6.3 3.7 5.2 4.2 4.4 4.2 2.2 1.9 1.1 4.7 4.6 4.9 4.0 3.8 3.1 3.0 1.8 2.4 2.4 1.5 1.7 2.0 2.0 2.0 1.9 1.7 1.7 1.3 2.4
6.5 6.5 6.5 6.5 6.5 6.5 6.5 6.5 6.5 6.5 6.5 6.5 6.5 6.5 6.5 6.5 6.5 6.2 2.7 3.5 4.4 2.5 2.2 -0.8 2.2 5.5 5.6 4.1 2.1 3.0 1.9 2.1 2.0 2.0 1.6 1.8 1.5 1.6 1.7 1.7 1.8 1.3 1.7 1.3
6.5 6.5 6.5 6.5 6.5 6.5 6.5 6.5 6.5 6.5 6.5 6.5 6.5 6.5 6.5 6.5 2.8 2.2 0.5 1.8 2.5 3.1 3.1 -0.7 0.4 4.2 5.0 4.2 3.5 1.5 2.2 2.6 1.3 2.5 2.2 1.7 1.4 1.1 1.9 1.8 1.4 1.6 1.9 2.5
6.5 6.5 6.5 6.5 6.5 6.5 6.5 6.5 6.5 6.5 6.5 6.5 6.5 6.5 6.5 4.0 3.6 4.9 3.0 2.6 1.7 1.2 0.5 0.9 -0.5 0.4 2.6 3.8 2.1 2.3 2.7 2.6 3.0 2.9 2.8 1.6 1.2 1.1 1.3 1.7 1.6 1.8 2.5 2.8
6.5 6.5 6.5 6.5 6.5 6.5 6.5 6.5 6.6 6.5 6.5 6.5 6.5 6.5 6.5 5.9 6.5 6.5 3.3 4.2 3.6 1.9 -0.4 0.0 -0.0 -0.9 1.6 1.8 3.5 1.3 0.4 2.1 2.3 2.2 1.8 2.0 1.5 1.3 0.9 1.3 2.4 2.6 3.0 2.6
6.5 6.5 6.5 6.5 6.5 6.5 6.5 6.5 6.0 6.5 6.5 6.5 6.1 6.0 6.2 6.5 4.7 2.1 2.0 3.5 4.0 3.8 3.7 0.4 0.3 -0.8 -0.8 0.4 1.1 1.5 2.3 1.2 0.6 0.9 1.2 2.1 2.1 1.7 1.4 1.9 3.0 3.6 3.0 2.1
6.5 6.5 6.5 6.5 6.5 6.5 6.5 6.4 6.5 6.5 5.2 4.4 5.1 4.1 3.7 2.8 2.0 2.5 1.8 2.7 1.5 2.9 3.2 4.0 1.0 -1.7 -1.2 -2.2 0.4 0.5 0.6 0.4 0.3 1.0 3.2 2.7 3.5 3.2 2.9 2.7 3.2 3.4 2.7 2.1
6.5 6.5 6.5 6.5 6.5 6.6 5.3 6.0 5.6 4.3 4.8 4.2 3.1 2.4 2.3 1.9 1.7 1.0 0.5 -0.3 -0.4 -0.9 -1.7 -2.3 -0.9 -1.9 -3.3 -3.9 -0.4 -0.6 0.1 0.5 -0.9 0.5 2.6 2.3 3.4 3.3 2.7 2.9 3.2 2.8 1.6 1.8
6.5 6.5 6.5 6.5 6.5 6.5 6.4 4.6 5.5 4.8 4.8 3.5 2.6 3.1 2.9 3.3 2.9 1.6 0.8 0.2 -0.3 -0.7 -0.9 -1.7 -2.7 -3.2 -2.8 -3.6 -2.9 -1.5 -2.2 -1.3 0.3 1.4 1.2 2.1 2.7 2.5 2.9 3.2 2.8 1.9 1.3 1.1
6.5 6.5 6.5 6.5 6.5 6.5 6.6 6.2 4.4 4.7 4.9 4.9 4.1 2.8 3.0 2.4 2.2 2.6 2.0 1.4 0.6 -0.2 -0.5 0.0 -0.3 -0.6 -1.2 -2.4 -2.4 -3.0 -1.3 1.5 3.0 2.3 2.0 1.7 1.4 0.3 -2.4 -2.1 0.8 0.6 -2.0 1.3
6.5 6.5 6.5 6.5 6.6 6.6 6.6 6.5 5.8 5.9 6.2 5.9 5.6 4.4 3.8 2.6 2.0 2.2 1.9 1.8 1.7 1.7 1.7 1.3 0.9 0.9 0.9 0.7 0.2 1.5 1.6 0.5 0.4 0.0 0.5 0.2 -0.8 -1.9 -1.4 -1.0 -1.8 -6.2 -5.2 -2.2
Wind_Speed
6 5 13 11 7 6 4 5 8 11 4 4 17 19 20 25 22 22 21 21 21 23 20 13 21 21 16 14 16 18 17 14 10 4 4 3 4 3 3 6 9 14 15 14
4 13 8 8 7 10 9 13 17 9 10 8 10 20 19 25 26 27 24 22 23 21 18 17 19 21 21 17 18 17 17 15 11 9 6 3 4 3 3 3 7 11 14 14
12 8 12 10 11 11 15 16 15 9 7 1 8 3 3 9 14 17 22 24 22 24 21 20 19 22 21 20 20 20 18 18 15 12 6 2 2 1 2 3 3 6 12 12
10 12 13 18 14 14 13 15 14 8 4 7 6 4 6 10 9 14 20 21 22 23 22 21 23 21 22 22 19 19 17 18 15 15 12 13 7 6 5 4 5 6 12 12
10 19 19 16 18 18 14 12 10 10 6 4 4 4 7 9 11 11 18 24 23 24 24 23 25 25 25 22 19 19 18 17 17 17 16 12 9 7 4 3 6 5 6 11
18 8 15 16 13 17 14 7 8 3 5 8 14 13 6 11 12 17 17 20 26 24 25 25 26 24 21 20 19 18 19 18 18 18 17 17 15 9 5 4 4 5 6 7
10 18 6 10 10 11 11 7 5 7 8 10 10 6 12 18 19 24 23 22 25 25 24 23 22 21 20 21 21 18 20 19 18 19 18 17 15 12 10 7 6 6 5 3
12 9 19 11 17 15 9 16 9 10 4 5 6 9 13 15 17 26 26 22 22 24 24 25 25 24 23 23 22 22 22 21 19 19 18 15 14 9 8 8 7 8 10 8
8 13 4 15 13 17 10 10 12 6 3 2 4 7 6 10 12 24 25 22 23 27 26 28 26 25 25 22 24 24 23 22 21 21 17 16 14 13 9 9 8 8 8 7
8 4 12 18 17 17 18 7 4 2 15 17 5 6 8 8 14 14 22 25 26 23 27 26 22 25 23 23 23 23 24 25 23 21 18 16 16 15 10 9 11 10 9 9
19 9 10 5 15 17 11 11 3 6 8 12 7 16 9 10 10 14 22 26 26 24 22 25 24 23 25 24 21 22 21 23 20 20 18 17 15 15 14 11 11 13 12 12
13 15 16 25 12 12 20 15 11 9 7 6 16 25 3 10 9 11 19 25 25 17 15 20 25 22 20 21 21 22 21 22 21 20 19 19 16 15 15 16 13 12 13 13
8 6 10 9 14 16 8 13 19 5 5 18 9 8 7 5 6 9 9 8 10 8 8 7 10 18 20 21 22 21 21 23 22 20 20 18 17 16 17 17 16 13 13 11
11 6 12 19 13 6 8 17 12 19 15 11 22 5 6 1 7 9 14 15 16 13 11 12 12 16 19 21 22 22 22 22 22 21 21 20 19 19 18 17 16 15 15 12
6 6 4 13 15 21 14 12 21 22 24 22 16 13 10 9 9 8 14 14 14 19 17 15 17 17 19 20 21 21 19 20 22 22 22 22 20 19 18 16 16 15 15 14
6 5 7 7 10 22 24 20 19 23 23 19 6 7 10 13 9 7 11 13 14 10 8 9 17 23 24 22 21 22 22 22 21 21 23 21 19 18 18 17 16 15 13 14
4 4 8 6 6 18 20 31 17 11 16 17 15 10 9 8 8 10 10 8 12 9 11 11 16 21 22 24 25 23 22 20 22 23 21 20 19 19 19 17 16 15 16 11
9 8 4 6 7 14 24 18 20 10 7 10 12 10 12 13 11 10 9 9 12 9 7 9 10 13 21 21 19 20 19 20 21 22 20 19 19 19 17 17 17 15 13 15
19 12 4 3 3 7 4 8 13 9 11 8 9 11 12 11 6 5 4 2 8 9 9 7 10 10 7 15 18 16 16 18 19 20 20 20 20 19 18 18 17 15 13 13
22 18 10 6 4 6 6 5 13 7 4 5 10 9 9 8 6 4 4 3 4 1 5 7 8 9 16 15 12 18 20 19 20 20 22 20 19 19 19 18 17 14 14 12
3 3 8 12 10 9 8 6 4 8 6 1 4 7 8 6 6 7 5 2 2 2 2 5 4 7 13 13 16 17 15 19 23 22 21 18 19 20 18 16 12 14 14 12
5 5 3 4 5 8 25 13 7 6 4 7 5 4 10 8 8 6 5 4 5 2 1 1 2 8 7 9 17 18 19 23 21 18 15 16 16 15 12 17 15 14 13 12
7 5 5 5 5 12 12 7 6 9 9 4 6 8 12 9 7 7 7 8 8 6 6 7 3 5 2 9 12 17 21 17 14 15 15 16 15 16 16 17 15 12 12 10
10 7 3 4 1 9 15 13 8 14 12 11 13 10 11 13 8 10 9 8 8 7 7 6 7 8 4 4 8 10 6 13 16 18 16 14 15 14 14 11 12 12 11 11
2 4 6 2 10 12 11 14 7 12 13 15 16 15 10 12 9 10 9 8 7 7 7 6 7 7 8 8 4 8 9 13 11 12 16 14 11 11 9 7 5 8 3 11
3 2 5 1 4 4 6 12 10 20 17 13 13 17 14 13 11 9 10 6 6 7 7 8 7 6 7 10 11 11 2 17 18 14 10 7 9 10 8 10 10 20 19 10
Wind_Direction
215 183 225 222 206 225 229 246 253 270 335 87 161 165 172 175 175 178 182 185 190 188 196 179 182 185 184 177 177 180 180 186 182 165 168 172 189 204 214 202 206 187 188 185
236 230 210 199 214 225 231 249 262 307 279 168 200 178 174 175 184 183 184 188 192 194 189 186 175 182 188 178 184 178 181 184 187 184 184 172 177 203 184 175 213 205 189 189
208 222 199 200 224 225 232 232 250 235 312 266 130 43 169 195 191 192 192 188 191 191 190 191 184 185 186 186 183 185 179 181 183 181 167 118 72 29 162 201 200 207 197 181
231 227 206 210 221 218 238 233 242 249 276 244 163 221 214 223 214 192 196 195 194 197 198 188 189 187 191 192 187 182 176 176 180 177 181 190 186 198 217 188 211 188 177 187
218 194 216 212 214 216 242 239 235 227 233 217 265 128 245 160 222 211 196 197 196 197 197 194 195 194 193 188 188 187 180 174 176 182 185 187 195 203 200 177 197 190 175 187
220 234 201 216 219 219 226 249 253 211 201 228 227 214 239 211 211 222 203 202 198 197 199 200 199 195 194 191 188 185 183 182 177 180 184 190 195 196 190 206 180 185 183 192
222 231 234 196 202 221 197 171 252 248 230 234 208 226 227 208 211 204 206 203 200 197 197 200 197 198 194 191 188 184 185 186 181 182 185 191 196 193 196 190 192 178 176 175
205 243 214 214 207 213 196 201 203 213 213 251 214 222 232 228 213 199 207 204 198 198 197 198 196 198 196 191 186 185 187 188 186 187 189 192 195 200 200 185 185 192 189 187
182 235 265 209 218 193 219 205 202 197 207 269 221 250 295 243 207 208 206 194 199 200 198 199 198 197 196 190 188 186 185 190 189 191 190 196 197 201 194 187 180 182 180 177
219 279 219 235 215 241 209 179 188 241 222 240 240 220 233 203 221 198 203 200 200 197 199 203 200 198 197 193 190 186 186 187 188 192 192 195 200 202 192 180 183 187 189 186
212 196 240 210 225 218 209 209 230 173 196 225 241 251 192 234 219 206 199 197 202 192 191 200 203 199 195 193 184 188 187 190 190 191 193 196 199 200 202 197 193 188 189 193
279 216 230 230 221 205 222 214 185 215 234 235 227 244 133 207 230 206 212 203 205 189 178 195 205 200 191 192 186 188 185 189 192 190 192 198 196 193 201 206 203 190 195 196
324 231 232 255 251 243 199 223 217 135 133 222 210 244 187 195 208 217 184 168 174 180 208 211 199 194 189 189 191 189 185 191 191 189 192 196 198 196 201 205 203 193 201 191
345 243 244 237 221 184 197 222 210 210 215 216 233 202 281 151 206 221 201 205 187 186 208 190 189 197 194 190 190 192 191 191 189 191 193 195 197 201 204 204 202 198 200 192
21 282 282 290 262 207 200 195 211 214 219 211 228 207 231 235 206 225 231 208 202 194 190 181 203 199 197 191 192 194 192 191 189 191 195 199 199 202 203 203 202 200 202 205
333 282 331 275 255 230 217 222 228 216 216 228 172 208 186 232 194 223 207 222 195 211 203 196 221 198 192 188 190 191 192 191 188 195 202 195 198 199 201 201 199 197 196 201
268 311 354 278 311 218 233 215 204 208 216 212 205 197 187 191 197 201 221 214 229 209 185 184 201 195 196 190 188 190 191 185 190 198 199 198 195 199 201 198 195 197 197 181
241 270 249 274 307 215 220 212 218 203 218 216 226 213 192 204 204 195 176 190 210 222 249 163 168 199 194 194 191 190 186 186 191 198 198 197 197 197 196 196 199 193 188 190
219 231 262 261 264 270 156 186 187 171 241 204 205 223 208 197 82 2 299 235 196 182 194 183 168 175 188 196 188 184 182 191 195 197 199 198 197 194 191 198 196 190 182 188
221 213 200 258 314 261 212 226 126 120 207 277 173 178 153 128 132 224 246 143 127 213 201 200 190 183 177 197 200 180 184 189 196 200 202 198 194 193 193 192 192 187 186 188
50 45 198 253 247 273 328 321 107 123 223 112 121 137 136 118 176 182 190 264 249 233 31 170 213 211 184 182 173 187 197 194 202 205 201 192 191 191 190 184 180 182 185 175
126 148 147 281 281 255 354 320 156 176 151 123 91 103 94 88 80 87 100 146 213 238 325 169 172 204 229 190 178 187 191 203 203 198 197 195 193 185 179 175 175 175 170 171
158 176 172 148 239 309 291 316 340 92 98 31 73 105 106 93 73 74 73 63 59 36 17 354 197 156 135 180 203 186 205 195 181 179 186 180 178 174 173 173 167 161 167 155
174 152 120 60 276 2 352 325 21 51 71 88 80 66 86 102 88 82 74 65 65 48 43 27 28 1 349 185 191 215 187 183 171 175 165 164 164 159 161 164 165 159 159 167
201 129 105 297 308 342 341 350 309 68 69 70 71 73 68 87 61 82 69 57 60 54 38 41 53 49 23 3 0 139 142 145 143 147 149 139 135 128 106 83 110 149 132 170
7 114 131 165 328 269 312 326 57 68 55 32 50 72 60 62 70 67 61 49 52 56 47 40 34 42 41 38 23 11 0 142 137 130 130 114 126 122 108 103 77 27 67 7